Location: Newark
(12.0500°N, 61.7500°W)
Time: 14:40:02
(UTC+00:00)

Envisat - Pass Details

Date: 30 January 2020
Orbit: 764 x 766 km, 98.1° (Epoch: 28 February)

Event Time Altitude Azimuth Distance (km) Brightness Sun altitude
Rises 09:55:35 0° 27° (NNE) 3,219 6.4 -9.4°
Reaches altitude 10° 09:58:05 10° 36° (NE) 2,293 5.7 -8.8°
Maximum altitude 10:02:38 34° 100° (E) 1,235 5.0 -7.8°
Drops below altitude 10° 10:07:11 10° 165° (SSE) 2,293 5.9 -6.7°
Sets 10:09:40 0° 174° (S) 3,218 6.6 -6.1°
